Terminal Aerodrome Forecast
Issued by NWS

Home | Current Version | Previous Version | Text Only | Print | Product List | Glossary On
Versions: 1 2 3 4 5 6 7 8 9 10 11 12 13 14 15 16 17 18 19 20 21 22 23 24 25 26 27 28 29 30 31 32 33 34 35 36 37 38 39
997
FTUS45 KSLC 090520
TAFPVU
TAF
KPVU 090520Z 0906/1006 00000KT 3SM BR SKC
     FM091000 00000KT 1SM BR BCFG FEW002
     FM091700 00000KT 3SM BR SKC
     FM092100 20005KT 6SM HZ SKC=

USA.gov is the U.S. government's official web portal to all federal, state and local government web resources and services.